Regional Weather Roundup
Issued by NWS

Home | Current Version | Previous Version | Graphics & Text | Print | Product List | Glossary On
Versions: 1 2 3 4 5 6 7 8 9 10 11 12 13 14 15 16 17 18 19 20 21 22 23 24 25 26 27 28 29 30 31 32 33 34 35 36 37 38 39 40 41 42 43 44 45 46 47 48 49 50
000
ASUS43 KLSX 211807
RWRMO

WEATHER SUMMARY FOR MISSOURI
NATIONAL WEATHER SERVICE SPRINGFIELD MO
1200 PM CST SAT JAN 21 2017

NOTE: "FAIR" INDICATES FEW OR NO CLOUDS BELOW 12,000 FEET WITH NO
       SIGNIFICANT WEATHER AND/OR OBSTRUCTIONS TO VISIBILITY.
       CURRENT SKY AND/OR WEATHER CONDITIONS ARE NOT AVAILABLE FOR
       CHILLICOTHE AND FARMINGTON.

MOZ001>031-035>038-043-044-053-054-211900-
...NORTHERN AND WESTERN MISSOURI...

CITY           SKY/WX    TMP DP  RH WIND       PRES   REMARKS
KANSAS CTY INT PTSUNNY   45  40  82 SW10      29.52F
6HR MIN TEMP:  40; 6HR MAX TEMP:  44;

KANSAS C DTWN  MOSUNNY   47  41  80 SW8       29.53F
6HR MIN TEMP:  41; 6HR MAX TEMP:  48;

LEE`S SUMMIT   CLOUDY    45  42  89 S10       29.54F
6HR MIN TEMP:  39; 6HR MAX TEMP:  45;

ST JOSEPH      CLOUDY    44  42  93 SW12      29.52F
6HR MIN TEMP:  40; 6HR MAX TEMP:  44;

CHILLICOTHE      N/A     43  42  97 SW8       29.54S
6HR MIN TEMP:  34; 6HR MAX TEMP:  43;

KIRKSVILLE     CLOUDY    45  44  97 S12       29.52R FOG
6HR MIN TEMP:  40; 6HR MAX TEMP:  45;


$$
MOZ066>068-077>081-088>096-101>105-211900-
...SOUTHWEST MISSOURI...

CITY           SKY/WX    TMP DP  RH WIND       PRES   REMARKS
SPRINGFIELD    MOSUNNY   60  38  43 VRB5      29.56F
6HR MIN TEMP:  41; 6HR MAX TEMP:  61;

JOPLIN         PTSUNNY   60  36  40 S9        29.54F
6HR MIN TEMP:  37; 6HR MAX TEMP:  60;

BRANSON        PTSUNNY   64  41  42 E5        29.58F

$$
MOZ032>034-039>042-045>050-055>058-069>072-211900-
...CENTRAL MISSOURI...

CITY           SKY/WX    TMP DP  RH WIND       PRES   REMARKS
COLUMBIA       SUNNY     58  42  55 SW14      29.54F
6HR MIN TEMP:  44; 6HR MAX TEMP:  58;

JEFFERSON CITY SUNNY     60  37  42 SW10      29.54F
6HR MIN TEMP:  47; 6HR MAX TEMP:  60;

ROLLA          SUNNY     63  38  39 SW18      29.54F
6HR MIN TEMP:  49; 6HR MAX TEMP:  63; 6HR PCP: TRACE;

SEDALIA        SUNNY     56  42  59 SW13      29.56F
6HR MIN TEMP:  45; 6HR MAX TEMP:  56;

WHITEMAN AFB   SUNNY     54  43  67 W9        29.53F
WARRENSBURG    SUNNY     50  41  71 SW9       29.55F
OSAGE BEACH    SUNNY     62  37  39 SW17      29.55F

$$
MOZ051-052-059>065-211900-
...EAST CENTRAL MISSOURI...

CITY           SKY/WX    TMP DP  RH WIND       PRES   REMARKS
ST LOUIS INTL  MOSUNNY   67  41  38 SW18      29.54
6HR MIN TEMP:  51; 6HR MAX TEMP:  67;

SPIRIT OF STL  MOSUNNY   65  43  44 W12       29.53F
6HR MIN TEMP:  52; 6HR MAX TEMP:  66;

ST CHARLES     SUNNY     64  45  49 SW15      29.53F
6HR MIN TEMP:  38; 6HR MAX TEMP:  64;


$$
MOZ072>076-082>087-097>100-106>115-211900-
...SOUTH CENTRAL AND SOUTHEAST MISSOURI...

CITY           SKY/WX    TMP DP  RH WIND       PRES   REMARKS
CAPE GIRARDEAU SUNNY     66  54  65 S21G29    29.61F
6HR MIN TEMP:  50; 6HR MAX TEMP:  66;

FARMINGTON     SUNNY     65  46  50 S13       29.58F
6HR MIN TEMP:  47; 6HR MAX TEMP:  65;

POPLAR BLUFF   SUNNY     67  55  65 S16G28    29.60F
6HR MIN TEMP:  43; 6HR MAX TEMP:  67;

WEST PLAINS    SUNNY     66  39  37 SW8       29.59F
6HR MIN TEMP:  42; 6HR MAX TEMP:  67;


$$



USA.gov is the U.S. government's official web portal to all federal, state and local government web resources and services.